Overview Statistics Trail Chart Weather Telemetry Raw packets
 

This is the latest recevied weather packets stored in our database for station/object KD4PMP. If no packets are shown the sender has not sent any weather packets the latest 10 day(s).

<< 44 45 46 47 48 49 50 >>
Time Temp. Humidity Pressure Rain* Wind** Luminosity Snow
1787944422 32.22° C 49% 1016.2 hPa 0 mm - - -
1787943816 32.22° C 50% 1016.3 hPa 0 mm - - -
1787943209 31.67° C 50% 1016.3 hPa 0 mm - - -
1787942603 31.67° C 50% 1016.5 hPa 0 mm - - -
1787941996 32.22° C 51% 1016.6 hPa 0 mm - - -
1787941390 31.67° C 53% 1016.5 hPa 0 mm - - -
1787940784 31.67° C 54% 1016.7 hPa 0 mm - - -
1787940177 31.67° C 52% 1016.7 hPa 0 mm - - -
1787939571 31.67° C 52% 1016.7 hPa 0 mm - - -
1787938964 31.11° C 55% 1017 hPa 0 mm - - -
1787938358 31.11° C 57% 1017 hPa 0 mm - - -
1787937752 30.56° C 56% 1017.1 hPa 0 mm - - -
1787937145 30° C 57% 1017.1 hPa 0 mm - - -
1787936539 30.56° C 56% 1017.1 hPa 0 mm - - -
1787935933 30.56° C 60% 1017.1 hPa 0 mm - - -
1787935326 30° C 61% 1017.3 hPa 0 mm - - -
1787934720 30° C 61% 1017.3 hPa 0 mm - - -
1787934114 30° C 62% 1017.2 hPa 0 mm - - -
1787933507 30° C 64% 1017.2 hPa 0 mm - - -
1787932901 30° C 64% 1017.3 hPa 0 mm - - -
1787932295 29.44° C 64% 1017.3 hPa 0 mm - - -
1787931688 28.89° C 67% 1017.3 hPa 0 mm - - -
1787931082 29.44° C 68% 1017.3 hPa 0 mm - - -
1787930475 28.89° C 67% 1017.3 hPa 0 mm - - -
1787929869 28.89° C 69% 1017.3 hPa 0 mm - - -

* Rain latest hour (hover to see other rain measurements)
** Current wind speed in m/s (hover to see current wind gust speed)